Time,TemperatureF,DewpointF,PressureIn,WindDirection,WindDirectionDegrees,WindSpeedMPH,WindSpeedGustMPH,Humidity,HourlyPrecipIn,Conditions,Clouds,dailyrainin,SoftwareType,DateUTC
2013-04-04 08:39:00,29.5,-3.7,29.91,SW,230,0.0,0.0,23,0.00,,---,0.00,VWS V13.01,2013-04-04 12:39:00,
2013-04-04 08:44:00,30.9,4.5,29.91,SSW,193,4.0,7.6,32,0.00,,---,0.00,VWS V13.01,2013-04-04 12:44:00,
2013-04-04 08:49:00,30.9,4.5,29.91,South,186,7.6,8.3,32,0.00,,---,0.00,VWS V13.01,2013-04-04 12:49:00,
2013-04-04 08:54:00,31.5,5.0,29.91,SSE,165,11.0,11.4,32,0.00,,---,0.00,VWS V13.01,2013-04-04 12:54:00,
2013-04-04 08:59:00,31.5,5.0,29.91,SSE,158,10.5,11.4,32,0.00,,---,0.00,VWS V13.01,2013-04-04 12:59:00,
2013-04-04 09:04:00,31.5,5.0,29.91,SSE,156,11.9,13.2,32,0.00,,---,0.00,VWS V13.01,2013-04-04 13:04:00,
2013-04-04 09:09:00,32.5,5.3,29.91,South,172,11.9,11.9,31,0.00,,---,0.00,VWS V13.01,2013-04-04 13:09:00,
2013-04-04 09:14:00,32.7,5.4,29.91,SSE,162,13.2,13.2,31,0.00,,---,0.00,VWS V13.01,2013-04-04 13:14:00,
2013-04-04 09:19:00,32.7,4.7,29.88,SSE,167,12.8,12.8,30,0.00,,---,0.00,VWS V13.01,2013-04-04 13:19:00,
2013-04-04 09:24:00,32.9,4.9,29.88,SSE,168,12.3,12.3,30,0.00,,---,0.00,VWS V13.01,2013-04-04 13:24:00,
2013-04-04 09:30:00,32.9,4.9,29.88,SSE,158,10.1,10.1,30,0.00,,---,0.00,VWS V13.01,2013-04-04 13:30:00,
2013-04-04 09:35:00,33.1,5.0,29.88,SSE,156,10.1,11.0,30,0.00,,---,0.00,VWS V13.01,2013-04-04 13:35:00,
2013-04-04 09:40:00,33.3,5.2,29.88,SE,146,8.7,9.2,30,0.00,,---,0.00,VWS V13.01,2013-04-04 13:40:00,
2013-04-04 09:45:00,33.3,5.2,29.88,SSE,157,10.1,10.1,30,0.00,,---,0.00,VWS V13.01,2013-04-04 13:45:00,
2013-04-04 09:50:00,33.3,5.9,29.88,SSE,151,8.3,8.3,31,0.00,,---,0.00,VWS V13.01,2013-04-04 13:50:00,
2013-04-04 09:55:00,33.6,6.2,29.88,SE,138,9.2,10.1,31,0.00,,---,0.00,VWS V13.01,2013-04-04 13:55:00,
2013-04-04 10:00:00,33.8,6.4,29.88,SE,133,8.7,8.7,31,0.00,,---,0.00,VWS V13.01,2013-04-04 14:00:00,
2013-04-04 10:05:00,33.8,6.4,29.85,SE,137,8.1,8.1,31,0.00,,---,0.00,VWS V13.01,2013-04-04 14:05:00,
2013-04-04 10:10:00,34.3,6.9,29.85,SE,140,7.6,8.3,31,0.00,,---,0.00,VWS V13.01,2013-04-04 14:10:00,
2013-04-04 10:15:00,34.5,7.0,29.85,SSE,152,8.3,8.3,31,0.00,,---,0.00,VWS V13.01,2013-04-04 14:15:00,
2013-04-04 10:20:00,35.1,7.5,29.85,SE,137,7.6,7.6,31,0.00,,---,0.00,VWS V13.01,2013-04-04 14:20:00,
2013-04-04 10:25:00,35.1,7.5,29.85,SE,138,8.7,8.7,31,0.00,,---,0.00,VWS V13.01,2013-04-04 14:25:00,
2013-04-04 10:30:00,35.1,7.5,29.85,SE,139,8.1,8.1,31,0.00,,---,0.00,VWS V13.01,2013-04-04 14:30:00,
2013-04-04 10:35:00,35.1,7.5,29.85,SE,137,8.7,8.7,31,0.00,,---,0.00,VWS V13.01,2013-04-04 14:35:00,
2013-04-04 10:40:00,39.2,4.5,29.85,SE,136,8.7,8.7,23,0.00,,---,0.00,VWS V13.01,2013-04-04 14:40:00,
2013-04-04 10:45:00,39.6,2.9,29.85,SE,129,9.2,10.1,21,0.00,,---,0.00,VWS V13.01,2013-04-04 14:45:00,
2013-04-04 10:50:00,40.3,3.5,29.85,SE,136,6.3,8.3,21,0.00,,---,0.00,VWS V13.01,2013-04-04 14:50:00,
2013-04-04 10:55:00,40.8,3.9,29.85,SE,144,8.3,8.3,21,0.00,,---,0.00,VWS V13.01,2013-04-04 14:55:00,
2013-04-04 11:00:00,40.8,3.9,29.85,SE,131,7.6,8.7,21,0.00,,---,0.00,VWS V13.01,2013-04-04 15:00:00,
2013-04-04 11:05:00,41.7,4.7,29.85,SSE,148,8.1,8.7,21,0.00,,---,0.00,VWS V13.01,2013-04-04 15:05:00,
2013-04-04 11:10:00,42.4,5.3,29.85,SE,143,8.7,8.7,21,0.00,,---,0.00,VWS V13.01,2013-04-04 15:10:00,
2013-04-04 11:15:00,43.0,4.7,29.85,SE,131,8.1,8.1,20,0.00,,---,0.00,VWS V13.01,2013-04-04 15:15:00,
2013-04-04 11:20:00,43.7,5.3,29.83,SE,129,8.7,8.7,20,0.00,,---,0.00,VWS V13.01,2013-04-04 15:20:00,
2013-04-04 11:25:00,44.6,6.0,29.83,SE,141,8.3,8.7,20,0.00,,---,0.00,VWS V13.01,2013-04-04 15:25:00,
2013-04-04 11:30:00,45.3,3.1,29.83,SSE,152,7.6,8.3,17,0.00,,---,0.00,VWS V13.01,2013-04-04 15:30:00,
2013-04-04 11:35:00,45.5,3.2,29.83,SE,146,8.3,8.7,17,0.00,,---,0.00,VWS V13.01,2013-04-04 15:35:00,
2013-04-04 11:40:00,45.7,6.9,29.83,SSE,153,8.1,8.3,20,0.00,,---,0.00,VWS V13.01,2013-04-04 15:40:00,
2013-04-04 11:45:00,45.5,6.8,29.83,SSE,155,7.6,8.1,20,0.00,,---,0.00,VWS V13.01,2013-04-04 15:45:00,
2013-04-04 11:50:00,45.5,6.8,29.83,SSE,164,8.7,8.7,20,0.00,,---,0.00,VWS V13.01,2013-04-04 15:50:00,
2013-04-04 11:55:00,46.2,7.4,29.83,SSE,153,8.3,8.3,20,0.00,,---,0.00,VWS V13.01,2013-04-04 15:55:00,
2013-04-04 12:00:00,47.1,7.0,29.83,SSE,157,8.7,8.7,19,0.00,,---,0.00,VWS V13.01,2013-04-04 16:00:00,
2013-04-04 12:05:00,47.1,7.0,29.83,SSE,158,8.3,8.3,19,0.00,,---,0.00,VWS V13.01,2013-04-04 16:05:00,
2013-04-04 12:10:00,47.1,7.0,29.83,SSE,153,8.3,8.3,19,0.00,,---,0.00,VWS V13.01,2013-04-04 16:10:00,
2013-04-04 12:15:00,47.1,7.0,29.83,SSE,152,7.6,7.6,19,0.00,,---,0.00,VWS V13.01,2013-04-04 16:15:00,
2013-04-04 12:20:00,47.1,7.0,29.80,SSE,155,6.7,7.6,19,0.00,,---,0.00,VWS V13.01,2013-04-04 16:20:00,
2013-04-04 12:25:00,47.1,7.0,29.80,SSE,151,6.7,6.7,19,0.00,,---,0.00,VWS V13.01,2013-04-04 16:25:00,
2013-04-04 12:30:00,48.7,8.3,29.80,SSE,158,5.8,6.3,19,0.00,,---,0.00,VWS V13.01,2013-04-04 16:30:00,
2013-04-04 12:36:00,49.3,8.8,29.80,SSE,158,5.8,5.8,19,0.00,,---,0.00,VWS V13.01,2013-04-04 16:36:00,
2013-04-04 12:41:00,47.3,7.1,29.80,SSE,162,5.8,7.2,19,0.00,,---,0.00,VWS V13.01,2013-04-04 16:41:00,
2013-04-04 12:46:00,47.8,7.6,29.80,SSE,160,5.4,5.8,19,0.00,,---,0.00,VWS V13.01,2013-04-04 16:46:00,
2013-04-04 12:50:00,48.2,7.9,29.77,South,169,5.4,5.4,19,0.00,,---,0.00,VWS V13.01,2013-04-04 16:50:00,
2013-04-04 12:55:00,49.8,9.2,29.77,SSE,159,4.9,5.4,19,0.00,,---,0.00,VWS V13.01,2013-04-04 16:55:00,
2013-04-04 13:01:00,50.0,9.4,29.77,SSE,157,3.6,4.0,19,0.00,,---,0.00,VWS V13.01,2013-04-04 17:01:00,
2013-04-04 13:06:00,49.5,8.9,29.77,SSE,152,5.4,5.4,19,0.00,,---,0.00,VWS V13.01,2013-04-04 17:06:00,
2013-04-04 13:11:00,50.2,9.5,29.77,SSE,160,5.4,5.4,19,0.00,,---,0.00,VWS V13.01,2013-04-04 17:11:00,
2013-04-04 13:16:00,52.3,10.1,29.77,SSE,161,4.5,4.9,18,0.00,,---,0.00,VWS V13.01,2013-04-04 17:16:00,
2013-04-04 13:21:00,52.3,10.1,29.74,SSE,164,5.4,5.4,18,0.00,,---,0.00,VWS V13.01,2013-04-04 17:21:00,
2013-04-04 13:26:00,50.2,9.5,29.74,SSE,168,6.7,6.7,19,0.00,,---,0.00,VWS V13.01,2013-04-04 17:26:00,
2013-04-04 13:31:00,49.5,5.2,29.74,SSE,163,6.3,6.7,16,0.00,,---,0.00,VWS V13.01,2013-04-04 17:31:00,
2013-04-04 13:36:00,49.5,5.2,29.74,SSE,167,7.6,7.6,16,0.00,,---,0.00,VWS V13.01,2013-04-04 17:36:00,
2013-04-04 13:41:00,49.1,4.9,29.74,SSE,161,6.7,6.7,16,0.00,,---,0.00,VWS V13.01,2013-04-04 17:41:00,
2013-04-04 13:46:00,49.5,8.9,29.74,South,172,6.3,6.3,19,0.00,,---,0.00,VWS V13.01,2013-04-04 17:46:00,
2013-04-04 13:51:00,50.5,9.8,29.71,SSE,161,5.8,5.8,19,0.00,,---,0.00,VWS V13.01,2013-04-04 17:51:00,
2013-04-04 13:56:00,52.0,9.8,29.71,SSE,156,4.0,4.5,18,0.00,,---,0.00,VWS V13.01,2013-04-04 17:56:00,
2013-04-04 14:01:00,53.1,10.7,29.71,SSE,160,4.5,4.5,18,0.00,,---,0.00,VWS V13.01,2013-04-04 18:01:00,
2013-04-04 14:07:00,52.9,10.6,29.71,SSE,166,4.0,4.0,18,0.00,,---,0.00,VWS V13.01,2013-04-04 18:07:00,
2013-04-04 14:12:00,52.9,10.6,29.71,SSE,155,4.9,4.9,18,0.00,,---,0.00,VWS V13.01,2013-04-04 18:12:00,
2013-04-04 14:17:00,54.9,12.2,29.71,SSE,152,8.3,8.7,18,0.00,,---,0.00,VWS V13.01,2013-04-04 18:17:00,
2013-04-04 14:22:00,55.6,11.5,29.68,SSE,162,7.6,8.1,17,0.00,,---,0.00,VWS V13.01,2013-04-04 18:22:00,
2013-04-04 14:27:00,55.8,11.6,29.68,SSE,166,6.3,6.3,17,0.00,,---,0.00,VWS V13.01,2013-04-04 18:27:00,
2013-04-04 14:32:00,55.8,11.6,29.68,SSE,167,5.4,6.3,17,0.00,,---,0.00,VWS V13.01,2013-04-04 18:32:00,
2013-04-04 14:37:00,55.8,11.6,29.68,SSE,165,5.8,6.7,17,0.00,,---,0.00,VWS V13.01,2013-04-04 18:37:00,
2013-04-04 14:42:00,55.8,11.6,29.68,SSE,164,4.5,5.4,17,0.00,,---,0.00,VWS V13.01,2013-04-04 18:42:00,
2013-04-04 14:47:00,58.6,14.0,29.68,SSE,166,4.0,4.9,17,0.00,,---,0.00,VWS V13.01,2013-04-04 18:47:00,
2013-04-04 14:52:00,58.6,14.0,29.68,SSE,164,2.7,2.7,17,0.00,,---,0.00,VWS V13.01,2013-04-04 18:52:00,
2013-04-04 14:57:00,58.6,14.0,29.68,SSE,164,5.8,5.8,17,0.00,,---,0.00,VWS V13.01,2013-04-04 18:57:00,
2013-04-04 15:02:00,60.4,15.4,29.68,SSE,162,5.8,6.3,17,0.00,,---,0.00,VWS V13.01,2013-04-04 19:02:00,
2013-04-04 15:07:00,60.8,14.4,29.65,SSE,157,5.4,5.4,16,0.00,,---,0.00,VWS V13.01,2013-04-04 19:07:00,
2013-04-04 15:12:00,60.6,15.6,29.65,South,169,5.4,5.8,17,0.00,,---,0.00,VWS V13.01,2013-04-04 19:12:00,
2013-04-04 15:17:00,60.4,15.4,29.65,SSE,156,5.4,5.8,17,0.00,,---,0.00,VWS V13.01,2013-04-04 19:17:00,
2013-04-04 15:22:00,60.1,15.1,29.65,SSE,158,5.4,6.3,17,0.00,,---,0.00,VWS V13.01,2013-04-04 19:22:00,
2013-04-04 15:27:00,59.4,14.6,29.65,SSE,159,4.5,4.5,17,0.00,,---,0.00,VWS V13.01,2013-04-04 19:27:00,
2013-04-04 15:32:00,58.1,9.2,29.65,SSE,158,5.8,5.8,14,0.00,,---,0.00,VWS V13.01,2013-04-04 19:32:00,
2013-04-04 15:37:00,56.8,9.7,29.62,SSE,158,6.7,7.6,15,0.00,,---,0.00,VWS V13.01,2013-04-04 19:37:00,
2013-04-04 15:42:00,55.0,8.2,29.62,SSE,160,8.7,8.7,15,0.00,,---,0.00,VWS V13.01,2013-04-04 19:42:00,
2013-04-04 15:47:00,53.8,7.2,29.62,SSE,163,8.1,8.1,15,0.00,,---,0.00,VWS V13.01,2013-04-04 19:47:00,
2013-04-04 15:52:00,54.0,7.4,29.62,SSE,160,6.3,6.3,15,0.00,,---,0.00,VWS V13.01,2013-04-04 19:52:00,
2013-04-04 15:57:00,54.0,7.4,29.62,SSE,159,7.6,7.6,15,0.00,,---,0.00,VWS V13.01,2013-04-04 19:57:00,
2013-04-04 16:02:00,53.4,8.4,29.62,South,179,6.3,7.6,16,0.00,,---,0.00,VWS V13.01,2013-04-04 20:02:00,
2013-04-04 16:07:00,53.6,7.1,29.62,South,172,7.6,7.6,15,0.00,,---,0.00,VWS V13.01,2013-04-04 20:07:00,
2013-04-04 16:12:00,53.8,11.3,29.62,SSE,160,5.8,5.8,18,0.00,,---,0.00,VWS V13.01,2013-04-04 20:12:00,
2013-04-04 16:17:00,52.7,10.4,29.62,SSE,166,4.9,4.9,18,0.00,,---,0.00,VWS V13.01,2013-04-04 20:17:00,
2013-04-04 16:22:00,52.5,7.6,29.62,SSE,158,8.3,8.7,16,0.00,,---,0.00,VWS V13.01,2013-04-04 20:22:00,
2013-04-04 16:27:00,52.7,7.8,29.62,SSE,161,7.6,8.7,16,0.00,,---,0.00,VWS V13.01,2013-04-04 20:27:00,
2013-04-04 16:32:00,53.2,8.2,29.59,South,177,6.3,8.1,16,0.00,,---,0.00,VWS V13.01,2013-04-04 20:32:00,
2013-04-04 16:37:00,53.2,8.2,29.59,South,175,6.3,6.3,16,0.00,,---,0.00,VWS V13.01,2013-04-04 20:37:00,
2013-04-04 16:42:00,52.2,7.3,29.59,SSE,159,7.6,8.3,16,0.00,,---,0.00,VWS V13.01,2013-04-04 20:42:00,
2013-04-04 16:47:00,52.7,10.4,29.59,SSE,150,4.9,4.9,18,0.00,,---,0.00,VWS V13.01,2013-04-04 20:47:00,
2013-04-04 16:52:00,51.6,6.9,29.59,SSW,194,5.4,6.3,16,0.00,,---,0.00,VWS V13.01,2013-04-04 20:52:00,
2013-04-04 16:57:00,51.6,6.9,29.59,SSE,162,8.3,8.3,16,0.00,,---,0.00,VWS V13.01,2013-04-04 20:57:00,
2013-04-04 17:02:00,52.2,7.3,29.59,South,171,6.3,6.3,16,0.00,,---,0.00,VWS V13.01,2013-04-04 21:02:00,
2013-04-04 17:07:00,52.7,7.8,29.59,South,169,8.1,8.1,16,0.00,,---,0.00,VWS V13.01,2013-04-04 21:07:00,
2013-04-04 17:12:00,52.7,7.8,29.59,SSE,157,8.7,9.2,16,0.00,,---,0.00,VWS V13.01,2013-04-04 21:12:00,
2013-04-04 17:17:00,52.2,7.3,29.56,South,170,5.8,7.6,16,0.00,,---,0.00,VWS V13.01,2013-04-04 21:17:00,
2013-04-04 17:22:00,52.5,7.6,29.56,SSE,160,8.3,10.5,16,0.00,,---,0.00,VWS V13.01,2013-04-04 21:22:00,
2013-04-04 17:27:00,54.0,7.4,29.56,South,169,12.8,12.8,15,0.00,,---,0.00,VWS V13.01,2013-04-04 21:27:00,
2013-04-04 17:32:00,54.5,7.8,29.56,South,170,12.3,12.3,15,0.00,,---,0.00,VWS V13.01,2013-04-04 21:32:00,
2013-04-04 17:37:00,54.5,7.8,29.56,SSE,160,10.5,10.5,15,0.00,,---,0.00,VWS V13.01,2013-04-04 21:37:00,
2013-04-04 17:42:00,53.4,8.4,29.56,SSE,154,9.6,9.6,16,0.00,,---,0.00,VWS V13.01,2013-04-04 21:42:00,
2013-04-04 17:47:00,53.6,7.1,29.56,SSE,157,13.2,13.2,15,0.00,,---,0.00,VWS V13.01,2013-04-04 21:47:00,
2013-04-04 17:52:00,53.6,7.1,29.56,South,173,12.3,13.2,15,0.00,,---,0.00,VWS V13.01,2013-04-04 21:52:00,
2013-04-04 17:57:00,53.4,8.4,29.56,South,172,11.0,12.8,16,0.00,,---,0.00,VWS V13.01,2013-04-04 21:57:00,
2013-04-04 18:02:00,53.4,8.4,29.56,SSE,165,11.0,11.0,16,0.00,,---,0.00,VWS V13.01,2013-04-04 22:02:00,
2013-04-04 18:07:00,53.6,7.1,29.56,SSE,166,9.6,10.1,15,0.00,,---,0.00,VWS V13.01,2013-04-04 22:07:00,
2013-04-04 18:12:00,51.1,6.5,29.56,SSE,168,8.1,10.1,16,0.00,,---,0.00,VWS V13.01,2013-04-04 22:12:00,
2013-04-04 18:17:00,51.1,6.5,29.56,South,170,9.2,11.4,16,0.00,,---,0.00,VWS V13.01,2013-04-04 22:17:00,
2013-04-04 18:22:00,50.4,5.9,29.56,South,170,7.6,9.2,16,0.00,,---,0.00,VWS V13.01,2013-04-04 22:22:00,
2013-04-04 18:27:00,50.4,5.9,29.56,South,173,9.2,10.5,16,0.00,,---,0.00,VWS V13.01,2013-04-04 22:27:00,
2013-04-04 18:32:00,50.4,5.9,29.56,SSE,163,6.3,8.7,16,0.00,,---,0.00,VWS V13.01,2013-04-04 22:32:00,
2013-04-04 18:37:00,49.8,5.4,29.56,SSE,167,7.6,10.1,16,0.00,,---,0.00,VWS V13.01,2013-04-04 22:37:00,
2013-04-04 18:42:00,48.9,4.7,29.56,SSE,162,8.7,8.7,16,0.00,,---,0.00,VWS V13.01,2013-04-04 22:42:00,
2013-04-04 18:47:00,49.1,4.9,29.56,SSE,161,8.3,9.2,16,0.00,,---,0.00,VWS V13.01,2013-04-04 22:47:00,
2013-04-04 18:52:00,49.5,5.2,29.56,SSE,158,9.2,9.2,16,0.00,,---,0.00,VWS V13.01,2013-04-04 22:52:00,
2013-04-04 18:57:00,49.3,5.0,29.56,SSE,164,6.7,8.1,16,0.00,,---,0.00,VWS V13.01,2013-04-04 22:57:00,
2013-04-04 19:02:00,48.6,4.4,29.56,SSE,166,10.1,10.1,16,0.00,,---,0.00,VWS V13.01,2013-04-04 23:02:00,
2013-04-04 19:07:00,47.5,7.3,29.56,South,177,8.7,8.7,19,0.00,,---,0.00,VWS V13.01,2013-04-04 23:07:00,
2013-04-04 19:12:00,47.3,7.1,29.56,South,184,6.3,6.3,19,0.00,,---,0.00,VWS V13.01,2013-04-04 23:12:00,
2013-04-04 19:17:00,46.6,6.5,29.56,SSE,163,5.4,5.4,19,0.00,,---,0.00,VWS V13.01,2013-04-04 23:17:00,
2013-04-04 19:22:00,46.6,6.5,29.56,SSE,162,6.3,6.3,19,0.00,,---,0.00,VWS V13.01,2013-04-04 23:22:00,
2013-04-04 19:27:00,46.2,7.4,29.56,South,185,6.3,6.3,20,0.00,,---,0.00,VWS V13.01,2013-04-04 23:27:00,
2013-04-04 19:32:00,45.9,9.2,29.56,South,189,4.0,4.0,22,0.00,,---,0.00,VWS V13.01,2013-04-04 23:32:00,
2013-04-04 19:37:00,45.5,8.9,29.56,SSE,165,8.7,8.7,22,0.00,,---,0.00,VWS V13.01,2013-04-04 23:37:00,
2013-04-04 19:42:00,45.5,8.9,29.56,South,177,0.0,5.8,22,0.00,,---,0.00,VWS V13.01,2013-04-04 23:42:00,
2013-04-04 19:47:00,45.3,8.7,29.53,SSW,192,5.4,5.8,22,0.00,,---,0.00,VWS V13.01,2013-04-04 23:47:00,
2013-04-04 19:52:00,45.1,8.6,29.53,SSE,165,5.4,5.4,22,0.00,,---,0.00,VWS V13.01,2013-04-04 23:52:00,
2013-04-04 19:57:00,44.6,8.1,29.53,South,173,5.8,7.6,22,0.00,,---,0.00,VWS V13.01,2013-04-04 23:57:00,
2013-04-04 20:02:00,44.6,8.1,29.56,SSE,168,5.8,5.8,22,0.00,,---,0.00,VWS V13.01,2013-04-05 00:02:00,
2013-04-04 20:07:00,44.8,8.3,29.56,South,176,7.2,7.2,22,0.00,,---,0.00,VWS V13.01,2013-04-05 00:07:00,
2013-04-04 20:12:00,45.3,6.6,29.56,South,171,8.1,10.1,20,0.00,,---,0.00,VWS V13.01,2013-04-05 00:12:00,
2013-04-04 20:17:00,45.3,6.6,29.56,SSE,167,6.3,6.3,20,0.00,,---,0.00,VWS V13.01,2013-04-05 00:17:00,
2013-04-04 20:22:00,45.3,6.6,29.56,South,181,4.0,8.7,20,0.00,,---,0.00,VWS V13.01,2013-04-05 00:22:00,
2013-04-04 20:27:00,45.3,6.6,29.56,SSW,199,8.1,8.1,20,0.00,,---,0.00,VWS V13.01,2013-04-05 00:27:00,
2013-04-04 20:32:00,45.7,9.0,29.53,SSE,163,4.0,7.6,22,0.00,,---,0.00,VWS V13.01,2013-04-05 00:32:00,
2013-04-04 20:37:00,45.7,9.0,29.53,SSW,203,5.8,8.3,22,0.00,,---,0.00,VWS V13.01,2013-04-05 00:37:00,
2013-04-04 20:42:00,44.6,8.1,29.53,SSE,165,8.7,8.7,22,0.00,,---,0.00,VWS V13.01,2013-04-05 00:42:00,
2013-04-04 20:47:00,44.6,8.1,29.53,South,181,8.1,9.6,22,0.00,,---,0.00,VWS V13.01,2013-04-05 00:47:00,
2013-04-04 20:52:00,44.6,8.1,29.53,SSE,164,10.5,11.0,22,0.00,,---,0.00,VWS V13.01,2013-04-05 00:52:00,
2013-04-04 20:57:00,44.6,8.1,29.53,SSE,158,11.0,11.0,22,0.00,,---,0.00,VWS V13.01,2013-04-05 00:57:00,
2013-04-04 21:02:00,43.2,12.3,29.53,SSE,162,10.1,11.0,28,0.00,,---,0.00,VWS V13.01,2013-04-05 01:02:00,
2013-04-04 21:07:00,43.2,12.3,29.53,SSE,162,5.8,8.3,28,0.00,,---,0.00,VWS V13.01,2013-04-05 01:07:00,
2013-04-04 21:12:00,43.2,12.3,29.53,South,177,5.4,5.4,28,0.00,,---,0.00,VWS V13.01,2013-04-05 01:12:00,
2013-04-04 21:17:00,43.2,12.3,29.53,SSE,164,8.1,8.1,28,0.00,,---,0.00,VWS V13.01,2013-04-05 01:17:00,
2013-04-04 21:22:00,43.2,12.3,29.53,South,172,7.6,7.6,28,0.00,,---,0.00,VWS V13.01,2013-04-05 01:22:00,
2013-04-04 21:27:00,43.2,12.3,29.53,SSW,201,3.6,4.0,28,0.00,,---,0.00,VWS V13.01,2013-04-05 01:27:00,
2013-04-04 21:32:00,41.4,11.5,29.53,SSW,194,4.0,5.8,29,0.00,,---,0.00,VWS V13.01,2013-04-05 01:32:00,
2013-04-04 21:37:00,41.5,11.7,29.53,South,186,4.9,4.9,29,0.00,,---,0.00,VWS V13.01,2013-04-05 01:37:00,
2013-04-04 21:42:00,41.7,11.8,29.53,South,185,7.6,7.6,29,0.00,,---,0.00,VWS V13.01,2013-04-05 01:42:00,
2013-04-04 21:48:00,42.6,12.6,29.53,South,169,11.0,12.8,29,0.00,,---,0.00,VWS V13.01,2013-04-05 01:48:00,
2013-04-04 21:53:00,43.2,12.3,29.53,South,177,11.0,13.2,28,0.00,,---,0.00,VWS V13.01,2013-04-05 01:53:00,
2013-04-04 21:58:00,43.3,12.4,29.53,SSE,163,12.8,13.2,28,0.00,,---,0.00,VWS V13.01,2013-04-05 01:58:00,
2013-04-04 22:03:00,43.3,12.4,29.53,SSE,157,8.1,12.3,28,0.00,,---,0.00,VWS V13.01,2013-04-05 02:03:00,
2013-04-04 22:08:00,43.3,12.4,29.53,SSE,163,11.0,12.3,28,0.00,,---,0.00,VWS V13.01,2013-04-05 02:08:00,
2013-04-04 22:13:00,43.3,12.4,29.53,SSE,163,11.0,13.2,28,0.00,,---,0.00,VWS V13.01,2013-04-05 02:13:00,
2013-04-04 22:18:00,43.3,12.4,29.53,South,169,8.7,9.2,28,0.00,,---,0.00,VWS V13.01,2013-04-05 02:18:00,
2013-04-04 22:23:00,43.3,12.4,29.53,SSE,159,12.3,12.3,28,0.00,,---,0.00,VWS V13.01,2013-04-05 02:23:00,
2013-04-04 22:28:00,43.3,12.4,29.53,SSE,154,10.1,10.5,28,0.00,,---,0.00,VWS V13.01,2013-04-05 02:28:00,
2013-04-04 22:33:00,43.3,12.4,29.53,SSE,153,11.0,11.0,28,0.00,,---,0.00,VWS V13.01,2013-04-05 02:33:00,
2013-04-04 22:38:00,43.3,12.4,29.53,SSE,165,12.8,12.8,28,0.00,,---,0.00,VWS V13.01,2013-04-05 02:38:00,
2013-04-04 22:43:00,41.7,12.6,29.53,SSE,158,11.0,12.8,30,0.00,,---,0.00,VWS V13.01,2013-04-05 02:43:00,
2013-04-04 22:48:00,41.7,12.6,29.50,SSE,157,12.8,13.2,30,0.00,,---,0.00,VWS V13.01,2013-04-05 02:48:00,
2013-04-04 22:53:00,41.5,12.4,29.50,SSE,165,11.0,11.9,30,0.00,,---,0.00,VWS V13.01,2013-04-05 02:53:00,
2013-04-04 22:58:00,41.5,12.4,29.50,SSE,160,11.9,11.9,30,0.00,,---,0.00,VWS V13.01,2013-04-05 02:58:00,
2013-04-04 23:00:00,41.5,12.4,29.50,SSE,163,11.0,11.0,30,0.00,,---,0.00,VWS V13.01,2013-04-05 03:00:00,